Regional Weather Roundup
Issued by NWS

Home | Current Version | Previous Version | Text Only | Print | Product List | Glossary On
Versions: 1 2 3 4 5 6 7 8 9 10 11 12 13 14 15 16 17 18 19 20 21 22 23 24 25 26 27 28 29 30 31 32 33 34 35 36 37 38 39 40 41 42 43 44 45 46 47 48 49 50
000
ASUS43 KMPX 011310
RWRMN
WEATHER ROUNDUP FOR MINNESOTA
NATIONAL WEATHER SERVICE TWIN CITIES/CHANHASSEN MN
700 AM CST MON MAR 01 2021


NOTE: "FAIR" INDICATES FEW OR NO CLOUDS BELOW 12,000 FEET WITH NO
SIGNIFICANT WEATHER AND/OR OBSTRUCTIONS TO VISIBILITY. N/A MEANS
CURRENT SKY AND/OR WEATHER CONDITIONS ARE NOT AVAILABLE.

MNZ060>063-068>070-011400-
   Twin Cities Metro

CITY           SKY/WX    TMP DP  RH WIND       PRES   REMARKS
TWIN CITIES    PTCLDY    14   8  77 N13       30.29R WCI   0
ST PAUL        CLEAR     14   7  73 N9        30.31R WCI   2
CRYSTAL        CLEAR     12   5  73 N8        30.29R WCI   0
BLAINE         CLEAR     12   9  85 NW9       30.28R WCI   0
LAKEVILLE      CLEAR     12   9  85 N9        30.28R WCI   0
EDEN PRAIRIE   MOCLDY    13   9  84 N5        30.28R WCI   5
SOUTH ST PAUL  CLEAR     15   9  77 N9G17     30.29R WCI   3
LAKE ELMO      FAIR      12   9  85 MISG      30.28R
$$
MNZ001>005-007-008-013>017-022>024-027-028-011400-
   Northwest Minnesota

CITY           SKY/WX    TMP DP  RH WIND       PRES   REMARKS
BEMIDJI        CLEAR     -8 -15  71 NW3       30.32R
HALLOCK        CLEAR     -9 -17  70 CALM      30.42R
ROSEAU         CLEAR     -8 -20  54 NW3       30.38R
WARROAD        CLEAR    -13 -18  77 W6        30.36S WCI -27
THIEF RVR FALL CLEAR     -8 -16  67 N5        30.38R WCI -19
CROOKSTON      CLEAR     -6 -15  65 N6        30.42R WCI -18
FOSSTON        CLEAR     -9 -17  70 N5        30.36  WCI -21
DETROIT LAKES  CLEAR     -4  -8  84 NW8       30.33R WCI -19
MOORHEAD       CLEAR      0  -9  65 N7        30.40R WCI -13
PARK RAPIDS    CLEAR     -1 -11  62 N8        30.29R WCI -15
MAHNOMEN       FAIR      -4 -11  72 N7        30.36R WCI -18
$$
MNZ006-009>011-018-025>026-011400-
   North Central Minnesota

CITY           SKY/WX    TMP DP  RH WIND       PRES   REMARKS
BAUDETTE       CLEAR    -13 -18  78 W7        30.35R WCI -29
FLAG ISLAND    CLEAR    -15 -20  76 NW9       30.35R WCI -33
INTL FALLS     CLEAR    -11 -17  75 W5        30.31R WCI -23
WASKISH        CLEAR    -11 -18  70 NW5       30.34R WCI -23
BIG FORK       CLEAR     -8 -17  65 CALM      30.35R
GRAND RAPIDS   CLEAR     -4 -14  62 N12       30.30R WCI -22
CRANE LAKE       N/A     -9 -15  77 CALM      30.32R
ORR            CLEAR     -9 -18  64 NW3       30.24R
COOK           CLEAR     -8 -17  65 NW3       30.26R
WALKER         SUNNY     -4 -11  72 N6        30.31R WCI -16
$$
MNZ012-019>021-037-011400-
   Northeast Minnesota

CITY           SKY/WX    TMP DP  RH WIND       PRES   REMARKS
DULUTH         CLEAR      0 -12  57 NW9       30.23R WCI -15
ELY            CLEAR     -8 -17  65 NW8       30.23R WCI -23
HIBBING        CLEAR     -5 -14  65 NW14      30.26R WCI -25
EVELETH        CLEAR     -3 -14  60 NW8       30.26R WCI -18
DULUTH HARBOR  CLEAR      5  -8  56 NW13      30.33R WCI -12
TWO HARBORS    CLEAR      0 -15  50 CALM      30.24R
SILVER BAY     CLEAR     -2 -17  50 NW3       30.24R
GRAND MARAIS     N/A      0 -14  51 CALM      30.26R
G MARAIS ARPRT CLEAR     -8 -17  65 NW8       30.09R WCI -23
$$
MNZ029>031-032-039>041-046>048-054>057-064-011400-
   West Central Minnesota

CITY           SKY/WX    TMP DP  RH WIND       PRES   REMARKS
FERGUS FALLS   PTCLDY     0  -6  78 N8        30.31R WCI -15
WHEATON        CLEAR      1  -6  71 NW8       30.39R WCI -12
MORRIS         CLEAR      3  -2  78 N9        30.34R WCI -11
ALEXANDRIA     CLEAR      1  -3  83 N7        30.30R WCI -12
ELBOW LAKE     FAIR      -4  -6  90 W5        30.34R WCI -14
WADENA         CLEAR     -2  -6  84 N5        30.31R WCI -12
GLENWOOD       CLEAR      3   1  92 N8        30.30R WCI -10
APPLETON       CLEAR     10   1  67 N8        30.34R WCI  -1
BENSON         CLEAR      5   1  85 NE6       30.33R WCI  -6
ORTONVILLE     CLEAR      9   0  66 N13       30.34R WCI  -7
MADISON        CLEAR     10   5  79 N6        30.35R WCI   1
WILLMAR        FAIR       9   3  78 N8        30.33R WCI  -4
$$
MNZ033>034-036-042>043-049>051-058-059-011400-
   Central Minnesota

CITY           SKY/WX    TMP DP  RH WIND       PRES   REMARKS
ST CLOUD       CLEAR      6  -2  69 N8        30.30R WCI  -7
SAUK CENTRE      N/A      3  -1  81 N7        30.30R WCI  -9
PAYNESVILLE    CLEAR      5   3  92 NW5       30.30R WCI  -4
AITKIN         CLEAR      1  -8  66 NW6       30.30R WCI -10
PINE RIVER     CLEAR      1  -8  66 N5        30.33R WCI  -8
BRAINERD       CLEAR      2  -4  76 N9        30.30R WCI -13
STAPLES        CLEAR      0  -4  85 N6        30.31R WCI -12
LONG PRAIRIE   FAIR       5   0  78 N6        30.30R WCI  -6
LITTLE FALLS   CLEAR      7  -2  66 NW3       30.32R
LITCHFIELD     CLEAR      5   3  92 N7        30.30R WCI  -7
BUFFALO        CLEAR      8   5  87 MISG      30.31R
MAPLE LAKE       N/A      9   7  92 N10       30.32R WCI  -6
HUTCHINSON     CLEAR      7   4  91 NW5       30.31R WCI  -2
$$
MNZ037-044-045-052-053-011400-
   East Central Minnesota

CITY           SKY/WX    TMP DP  RH WIND       PRES   REMARKS
PRINCETON      CLEAR      9   1  72 N9        30.30R WCI  -5
MORA           CLEAR      7   1  78 N6        30.31R WCI  -3
CAMBRIDGE      CLEAR     10   0  61 N7        30.30R WCI   0
RUSH CITY      PTCLDY     7  -1  69 N7        30.31R WCI  -5
MOOSE LAKE     CLEAR      1  -4  78 N5        30.28R WCI  -8
HINCKLEY       SUNNY      9  -2  61 CALM      30.30R
CLOQUET        CLEAR      0 -11  60 NW7       30.25R WCI -13
MCGREGOR       CLEAR      3  -8  60 NW9       30.28R WCI -11
$$
MNZ071>073-080-081-089-090-097-098-011400-
   Southwest Minnesota

CITY           SKY/WX    TMP DP  RH WIND       PRES   REMARKS
MONTEVIDEO     CLEAR     10   5  79 N7        30.33R WCI   0
GRANITE FALLS  CLEAR     11   7  85 NW8       30.34R WCI  -1
CANBY          CLEAR     10   7  87 NW7       30.33R WCI   0
MARSHALL       CLEAR     12   8  84 N12       30.31R WCI  -2
REDWOOD FALLS  CLEAR     13   9  84 N6        30.30R WCI   4
OLIVIA         CLEAR     10   7  85 N8        30.30R WCI  -1
PIPESTONE        N/A     14  12  92 NE16      30.23R WCI  -2
WINDOM         CLOUDY    18  16  93 N17       30.24R WCI   2
WORTHINGTON    CLOUDY    17  16  95 N17G24    30.23R WCI   1
JACKSON        PTCLDY    19  18  93 N14       30.22R WCI   6
TRACY          PTCLDY    15  10  81 N10       30.28R WCI   2
SLAYTON        CLOUDY    15  12  88 N17       30.23R WCI  -1
$$
MNZ065>067-074>077-082>085-091>093-011400-
   South Central Minnesota

CITY           SKY/WX    TMP DP  RH WIND       PRES   REMARKS
MANKATO        PTCLDY    16  14  92 N13       30.27R WCI   2
NEW ULM        PTCLDY    16  10  79 N6        30.29R WCI   7
ST JAMES       CLOUDY    19  16  86 N16       30.26R WCI   5
FAIRMONT       PTCLDY    20  16  84 N13G20    30.24R WCI   7
GLENCOE        CLEAR      8   6  89 N5        30.29R WCI   0
FARIBAULT        N/A     18  12  79 N10       30.26R WCI   6
OWATONNA       FLURRIES  12  10  92 N7        30.23R WCI   2
WASECA         PTCLDY    16  12  86 N10       30.25R WCI   3
ALBERT LEA     MOCLDY    18  18 100 N13       30.21R WCI   4
$$
MNZ078>079-086>088-094>096-011400-
   Southeast Minnesota

CITY           SKY/WX    TMP DP  RH WIND       PRES   REMARKS
ROCHESTER      CLOUDY    17  13  84 N12       30.21R FOG     WCI   4
RED WING       PTCLDY    16  10  79 N6        30.27R WCI   7
STANTON        CLEAR     12   8  85 N6        30.26R WCI   3
DODGE CENTER   CLOUDY    18  14  86 N10       30.22R WCI   6
WINONA         LGT SNOW  21  19  93 N5        30.25R WCI  15
PRESTON        LGT SNOW  18  15  89 N9        30.20R WCI   6
$$
ABBREVIATIONS USED IN REMARKS
   TC - TEMPERATURES IN CELSIUS
  WCI - WIND CHILL INDEX
   HX - HEAT INDEX
  VSB - VISIBILITY
$$



USA.gov is the U.S. government's official web portal to all federal, state and local government web resources and services.